[[{"header":{"parameterUnit":"m.s-1","parameterCategory":1,"la1":30.2991,"la2":30.254,"lo1":-89.0895,"lo2":-89.0444,"dy":0.0017,"dx":0.0017,"nx":28,"ny":28,"refTime":"2023-09-12T09:00:00:Z","depth":0,"parameterNumber":2,"parameterNumberName":"U-component_of_WINDS"},"data":[0,0,0,0,0,0,0,0,0,0,0,0,0,0,0,0,0,0,0,0,0,0,0,0,0,0,0,0,0,0,0,0,0,0,0,0,0,0,0,0,0,0,0,0,0,0,0,0,0,0,0,0,0,0,0,0,0,0,1.7536,1.7538,0,1.7693,1.7695,1.7697,1.7723,1.7721,1.772,1.7719,1.7888,1.7894,1.79,0,0,0,0,0,0,0,0,0,0,0,0,0,1.7264,1.7269,1.7536,1.7538,1.754,1.7693,1.7695,1.7697,1.7723,1.7721,1.772,1.7718,1.7886,1.7893,1.79,0,0,0,0,0,0,0,0,0,0,0,0,0,1.7398,1.7271,1.7535,1.7571,1.7575,1.7693,1.7695,1.7698,1.7723,1.7721,1.7719,1.7717,1.7884,1.7893,1.7901,1.7997,0,0,1.7928,1.7932,0,0,0,0,0,0,0,0,1.7391,1.7408,1.7564,1.7568,1.7574,1.7686,1.7662,1.7798,1.7724,1.7667,1.7719,1.7716,1.7823,1.7837,1.7871,1.8005,1.8012,1.7929,1.7934,1.7938,1.794,0,0,0,0,0,0,0,1.7381,1.7402,1.7598,1.7566,1.7572,1.7581,1.7598,1.7688,1.7755,1.7672,1.7674,1.7692,1.7826,1.7863,1.7875,1.8014,1.7928,1.7936,1.7941,1.7945,1.8235,1.8237,0,0,0,0,0,0,1.7365,1.7394,1.7593,1.7603,1.7475,1.7588,1.7606,1.7652,1.7754,1.7768,1.7694,1.7693,1.7849,1.7865,1.7881,1.8,1.7938,1.7946,1.7951,1.8232,1.8235,1.8238,0,0,0,0,0,0,1.7359,1.7382,1.7587,1.7499,1.7526,1.7594,1.7646,1.7657,1.7693,1.7771,1.7784,1.7719,1.7848,1.7869,1.7967,1.8007,1.795,1.7958,1.8229,1.8233,1.8237,1.8238,0,0,0,0,0,0,1.7351,1.738,1.7415,1.7499,1.753,1.7668,1.7648,1.7661,1.7707,1.7708,1.7797,1.7811,1.7848,1.7954,1.7976,1.8018,1.7964,1.8226,1.8231,1.8235,1.8235,1.8242,1.8247,0,0,0,0,0,1.7341,1.7411,1.7417,1.7441,1.7575,1.767,1.7688,1.7727,1.771,1.7748,1.7797,1.7808,1.7998,1.7964,1.7989,1.8034,1.8224,1.823,1.8235,1.8232,1.824,1.8247,0,0,0,0,0,0,1.7333,1.7423,1.743,1.7529,1.7591,1.7674,1.7722,1.7734,1.7805,1.7803,1.7851,1.7871,1.7967,1.801,1.797,1.8132,1.811,1.8121,1.81,1.8108,1.8114,1.8102,1.7972,0,0,0,0,0,1.7342,1.7409,1.7485,1.7565,1.7596,1.7653,1.7696,1.7721,1.7788,1.7816,1.7873,1.794,1.8015,1.8064,1.8137,1.8241,1.8262,1.8284,1.829,1.8295,1.8304,1.8363,1.8374,1.8256,1.8256,1.8256,0,0,1.7363,1.742,1.746,1.7565,1.7616,1.7686,1.7676,1.7751,1.7804,1.7828,1.7923,1.7967,1.8046,1.8147,1.8195,1.8186,1.8341,1.8302,1.8305,1.8312,1.837,1.8381,1.839,1.826,1.8259,1.8259,0,0,1.7436,1.7486,1.7558,1.7609,1.7685,1.7723,1.774,1.7821,1.785,1.7946,1.7965,1.8031,1.8159,1.8214,1.8259,1.8352,1.8365,1.8375,1.8407,1.8464,1.8473,1.8482,1.8516,1.8527,1.8384,1.8384,1.8384,0,1.7453,1.7557,1.7594,1.7668,1.7714,1.7736,1.7811,1.7859,1.7957,1.7989,1.7977,1.8138,1.8193,1.8307,1.833,1.8365,1.8388,1.8366,1.8468,1.8477,1.8486,1.8519,1.8531,1.8384,1.8384,1.8384,1.8384,0,1.7575,1.7647,1.7696,1.7787,1.7839,1.7913,1.7963,1.8011,1.8031,1.8071,1.8169,1.8234,1.8321,1.835,1.8372,1.8468,1.8461,1.8458,1.8438,1.8497,1.8529,1.8542,1.8386,1.8385,1.8385,1.8385,0,0,1.7649,1.7757,1.7775,1.7816,1.7902,1.796,1.8035,1.8117,1.8158,1.8225,1.8291,1.8398,1.8396,1.8446,1.8474,1.8524,1.8594,1.8515,1.8518,1.8528,1.8705,1.8707,1.8721,1.8602,1.8605,1.8607,1.8699,0,1.7733,1.7866,1.7901,1.8014,1.8082,1.8103,1.8169,1.823,1.8269,1.8334,1.8378,1.8453,1.8444,1.8475,1.8525,1.8575,1.863,1.8568,1.8666,1.8669,1.8646,1.8738,1.874,1.8824,1.8712,1.8714,1.8715,0,1.785,1.7915,1.8035,1.8111,1.8141,1.8199,1.8277,1.8338,1.8408,1.8433,1.8489,1.8511,1.8593,1.8567,1.8681,1.8638,1.868,1.8711,1.8715,1.8727,1.8696,1.8753,1.8852,1.8864,1.8735,1.8734,1.8732,0,1.7893,1.8011,1.8098,1.8133,1.8223,1.8264,1.8304,1.8372,1.8419,1.8488,1.8519,1.8598,1.8641,1.8702,1.8746,1.8723,1.8857,1.8835,1.8882,1.8881,1.891,1.8908,1.9018,1.8936,1.8935,1.8935,1.8935,0,1.7984,1.8056,1.8118,1.8172,1.8254,1.8294,1.8375,1.8417,1.8476,1.854,1.8564,1.8623,1.8677,1.8745,1.878,1.8869,1.8889,1.8913,1.8922,1.8911,1.8908,1.894,1.8936,1.8939,1.8938,1.8937,1.8937,0,1.8046,1.809,1.8186,1.8263,1.8284,1.8342,1.8409,1.8463,1.8502,1.8582,1.8603,1.8665,1.8746,1.8795,1.8898,1.8922,1.902,1.9027,1.8996,1.9,1.9045,1.904,1.918,1.9201,1.9103,1.9104,1.9105,0,1.8102,1.8157,1.824,1.8282,1.8322,1.8391,1.8439,1.8481,1.853,1.8613,1.8657,1.8738,1.8805,1.8933,1.8989,1.9068,1.9077,1.9121,1.9089,1.9077,1.9079,1.9075,1.9081,1.9126,1.9127,1.9128,1.9128,0,1.8196,1.8215,1.828,1.8354,1.8409,1.847,1.8531,1.8565,1.8618,1.8672,1.8753,1.8804,1.8908,1.8989,1.9072,1.9116,1.9132,1.9137,1.9153,1.9143,1.9123,1.9135,1.9011,1.9134,1.9134,1.9133,1.9133,1.9133,1.8258,1.8308,1.8373,1.8446,1.8495,1.8551,1.8605,1.865,1.8717,1.8803,1.8824,1.8909,1.8978,1.9091,1.9137,1.9205,1.9199,1.9221,1.9227,1.9232,1.9233,1.9111,1.9221,1.9221,1.9221,1.9221,1.922,0,1.8354,1.8396,1.8462,1.8545,1.8603,1.8609,1.8676,1.8725,1.8798,1.886,1.8924,1.9018,1.9096,1.9157,1.9238,1.9281,1.929,1.9301,1.9299,1.9309,1.9234,1.9213,1.9292,1.9292,1.9292,1.9292,1.9292,1.9292,1.8411,1.8496,1.8522,1.8633,1.8676,1.8757,1.8795,1.8848,1.8897,1.8999,1.9063,1.9101,1.9163,1.9248,1.9321,1.9337,1.9366,1.9376,1.9393,1.9322,1.9314,1.9307,1.9287,1.9381,1.9382,1.9463,1.9464,1.9464]},{"header":{"parameterUnit":"m.s-1","parameterCategory":1,"la1":30.2991,"la2":30.254,"lo1":-89.0895,"lo2":-89.0444,"dy":0.0017,"dx":0.0017,"nx":28,"ny":28,"refTime":"2023-09-12T09:00:00:Z","depth":0,"parameterNumber":3,"parameterNumberName":"V-component_of_WINDS"},"data":[0,0,0,0,0,0,0,0,0,0,0,0,0,0,0,0,0,0,0,0,0,0,0,0,0,0,0,0,0,0,0,0,0,0,0,0,0,0,0,0,0,0,0,0,0,0,0,0,0,0,0,0,0,0,0,0,0,0,1.2569,1.2569,0,1.2504,1.2504,1.2503,1.2459,1.2458,1.2458,1.2458,1.239,1.2389,1.2388,0,0,0,0,0,0,0,0,0,0,0,0,0,1.2652,1.2651,1.257,1.2569,1.2568,1.2505,1.2504,1.2503,1.2459,1.2458,1.2458,1.2458,1.2391,1.2389,1.2387,0,0,0,0,0,0,0,0,0,0,0,0,0,1.2605,1.265,1.257,1.2538,1.2535,1.2505,1.2504,1.2503,1.2459,1.2458,1.2458,1.2458,1.2392,1.2389,1.2387,1.2383,0,0,1.238,1.2379,0,0,0,0,0,0,0,0,1.2607,1.2602,1.2544,1.254,1.2537,1.2489,1.2508,1.2462,1.2459,1.2488,1.2458,1.2457,1.2424,1.2419,1.2408,1.238,1.2377,1.238,1.2379,1.2378,1.2377,0,0,0,0,0,0,0,1.2611,1.2604,1.2544,1.2543,1.2539,1.2526,1.2519,1.2499,1.2459,1.2485,1.2482,1.2475,1.2422,1.241,1.2406,1.2376,1.238,1.2378,1.2377,1.2376,1.2336,1.2336,0,0,0,0,0,0,1.2619,1.2607,1.2546,1.2542,1.2572,1.2525,1.2517,1.2505,1.2459,1.2452,1.2475,1.2473,1.2414,1.2408,1.2403,1.2392,1.2378,1.2376,1.2374,1.2336,1.2336,1.2336,0,0,0,0,0,0,1.2621,1.2614,1.2548,1.2573,1.2564,1.2524,1.2511,1.2504,1.2492,1.2452,1.2444,1.2471,1.2413,1.2406,1.2387,1.2389,1.2375,1.2373,1.2335,1.2336,1.2336,1.2372,0,0,0,0,0,0,1.2624,1.2615,1.2614,1.2574,1.2563,1.2535,1.2511,1.2503,1.2488,1.2485,1.2446,1.2439,1.2412,1.2391,1.2385,1.2386,1.2371,1.2335,1.2336,1.2336,1.237,1.2374,1.2376,0,0,0,0,0,1.2627,1.2628,1.2614,1.2607,1.2561,1.2535,1.2529,1.2499,1.2489,1.2486,1.246,1.244,1.239,1.2389,1.2382,1.2383,1.2335,1.2335,1.2336,1.2369,1.2373,1.2376,0,0,0,0,0,0,1.267,1.2622,1.2607,1.2595,1.2569,1.2528,1.2524,1.2505,1.2481,1.2479,1.2442,1.2434,1.2418,1.2398,1.2398,1.2374,1.236,1.2359,1.2387,1.239,1.2393,1.2398,1.2369,0,0,0,0,0,1.2678,1.2662,1.262,1.2613,1.2601,1.2565,1.2553,1.2531,1.2504,1.2493,1.2465,1.2438,1.2415,1.2402,1.238,1.2367,1.2356,1.2364,1.2366,1.2369,1.2369,1.2357,1.2359,1.2339,1.2339,1.2339,0,0,1.2694,1.2666,1.2658,1.2621,1.2599,1.2581,1.2556,1.254,1.2526,1.249,1.247,1.2448,1.2415,1.2398,1.239,1.2382,1.2372,1.237,1.2372,1.237,1.2358,1.236,1.2362,1.2339,1.2339,1.2339,0,0,1.2715,1.2693,1.2683,1.2661,1.2627,1.2603,1.26,1.2561,1.2545,1.2524,1.2496,1.2478,1.2441,1.2418,1.2402,1.2409,1.2389,1.2403,1.2418,1.2407,1.2409,1.241,1.2411,1.2411,1.2403,1.2403,1.2403,0,1.274,1.2713,1.2681,1.2665,1.2648,1.2614,1.2602,1.2582,1.2543,1.2532,1.2523,1.2474,1.245,1.2425,1.2427,1.2415,1.241,1.2408,1.2411,1.2412,1.2413,1.2413,1.2413,1.2405,1.2405,1.2404,1.2404,0,1.2743,1.2725,1.2721,1.2683,1.2666,1.2653,1.2616,1.2603,1.2582,1.2558,1.2534,1.2504,1.2473,1.2466,1.2446,1.2437,1.2433,1.2419,1.2404,1.2417,1.2416,1.2416,1.2407,1.2407,1.2406,1.2406,0,0,1.2791,1.2733,1.2732,1.2713,1.2672,1.2656,1.264,1.2609,1.2597,1.257,1.2554,1.2522,1.2507,1.2488,1.2465,1.2456,1.246,1.2442,1.244,1.2445,1.2445,1.2456,1.2457,1.2446,1.2446,1.2446,1.2447,0,1.2804,1.2773,1.2742,1.2722,1.2703,1.2669,1.2654,1.2626,1.2602,1.2581,1.2554,1.2531,1.2514,1.2502,1.2491,1.2462,1.246,1.2462,1.2429,1.2428,1.2438,1.2457,1.2469,1.2471,1.2447,1.2447,1.2447,0,1.2816,1.2789,1.2767,1.2725,1.2715,1.2703,1.2671,1.2652,1.2618,1.2601,1.2578,1.2553,1.2532,1.2519,1.2487,1.2489,1.2474,1.2457,1.2456,1.2451,1.2438,1.2451,1.2472,1.2472,1.2447,1.2447,1.2447,0,1.2849,1.2809,1.2789,1.2774,1.2725,1.2716,1.2695,1.2661,1.2644,1.2615,1.2603,1.2572,1.2555,1.2531,1.2497,1.2492,1.2468,1.2454,1.2452,1.2453,1.2449,1.2449,1.2466,1.244,1.244,1.244,1.244,0,1.2866,1.2854,1.2803,1.2792,1.2775,1.2739,1.2723,1.2698,1.2668,1.2649,1.2618,1.26,1.2557,1.2534,1.2507,1.2484,1.2477,1.2461,1.2454,1.2463,1.2465,1.2452,1.245,1.244,1.244,1.244,1.244,0,1.2902,1.2868,1.2844,1.2799,1.2787,1.2777,1.2737,1.2723,1.2696,1.2672,1.2664,1.2622,1.2593,1.2556,1.2516,1.2498,1.2476,1.2466,1.2488,1.2483,1.2483,1.2483,1.2491,1.2489,1.2467,1.2467,1.2467,0,1.2914,1.2903,1.2856,1.2842,1.2821,1.2798,1.278,1.2742,1.2724,1.2683,1.2673,1.2642,1.2614,1.2569,1.2533,1.2501,1.2489,1.2494,1.2484,1.2493,1.2487,1.2488,1.2485,1.2497,1.2497,1.2498,1.2498,0,1.2939,1.2922,1.2898,1.2866,1.2845,1.2818,1.279,1.2779,1.2736,1.2716,1.2686,1.2665,1.2622,1.259,1.2553,1.2529,1.2505,1.2501,1.2499,1.2508,1.252,1.2511,1.2493,1.2501,1.2501,1.2501,1.25,1.25,1.2962,1.295,1.2914,1.2887,1.2861,1.2835,1.2819,1.2789,1.2763,1.2726,1.2705,1.2675,1.2638,1.2585,1.2562,1.2536,1.2528,1.2525,1.2524,1.2524,1.2526,1.2525,1.253,1.2529,1.2529,1.2529,1.2529,0,1.2984,1.2959,1.2934,1.2895,1.2872,1.2852,1.2819,1.2801,1.2775,1.2743,1.2717,1.268,1.2648,1.2609,1.2574,1.2561,1.2549,1.2552,1.2553,1.2547,1.2536,1.2541,1.2563,1.2563,1.2563,1.2563,1.2563,1.2563,1.2992,1.297,1.2948,1.2911,1.2886,1.2856,1.2839,1.2813,1.2787,1.2748,1.2721,1.2696,1.2661,1.2622,1.2591,1.258,1.2568,1.2575,1.2561,1.2551,1.2548,1.2545,1.255,1.2573,1.2573,1.2573,1.2573,1.2573]}]]